Regional Weather Roundup
Issued by NWS

Home | Current Version | Previous Version | Graphics & Text | Print | Product List | Glossary On
Versions: 1 2 3 4 5 6 7 8 9 10 11 12 13 14 15 16 17 18 19 20 21 22 23 24 25 26 27 28 29 30 31 32 33 34 35 36 37 38 39 40 41 42 43 44 45 46 47 48 49 50
684
ASUS44 KJAN 241203
RWRMS

MISSISSIPPI HOURLY WEATHER ROUNDUP
NATIONAL WEATHER SERVICE JACKSON MS
700 AM CDT THU APR 24 2014

NOTE: "FAIR: INDICATES FEW OR NO CLOUDS BELOW 12,000 FEET WITH NO
SIGNIFICANT WEATHER AND/OR OBSTRUCTIONS TO VISIBILITY.

MSZ001>002-007>008-010>013-018>021-025>028-034>036-241300-
NORTHWEST MISSISSIPPI

CITY           SKY/WX    TMP DP  RH WIND       PRES   REMARKS
CLARKSDALE       N/A     55  48  76 CALM      29.92S
CLEVELAND      FAIR      60  49  67 S10       29.91R
GREENWOOD      PTCLDY    59  43  55 E7        29.93R
6HR MIN TEMP:  53; 6HR MAX TEMP:  60;

GREENVILLE     MOCLDY    57  50  77 S3        29.91R
6HR MIN TEMP:  56; 6HR MAX TEMP:  60;

GRENADA        FAIR      48  46  93 CALM      29.94R
OLIVE BRANCH   CLEAR     48  43  81 SE5       29.92S
OXFORD         FAIR      54  39  58 SE3       29.95S
TUNICA         MOSUNNY   52  45  76 CALM      29.93R
$$

MSZ003>006-009-014>017-022>024-029>033-037>039-241300-
NORTHEAST MISSISSIPPI

CITY           SKY/WX    TMP DP  RH WIND       PRES   REMARKS
BELMONT        FAIR      46  42  88 CALM      29.96R
COLUMBUS AFB   PTCLDY    47  47  97 SE1       29.96R
6HR MIN TEMP:  46; 6HR MAX TEMP:  50;

CORINTH        FAIR      43  41  93 CALM      29.95S
GOLDN TRIANGLE CLEAR     52  43  71 CALM      29.98R
STARKVILLE     FAIR      48  46  93 CALM      29.96R
TUPELO         CLEAR     50  44  80 CALM      29.96R
6HR MIN TEMP:  45; 6HR MAX TEMP:  53;

$$

MSZ040-058-241300-
CENTRAL MISSISSIPPI

CITY           SKY/WX    TMP DP  RH WIND       PRES   REMARKS
JACKSON INTL   MOCLDY    55  52  89 CALM      29.94R
6HR MIN TEMP:  54; 6HR MAX TEMP:  61;

JACKSON HAWKNS MOCLDY    58  52  80 CALM      29.95R
6HR MIN TEMP:  57; 6HR MAX TEMP:  62;

MERIDIAN KEY   CLEAR     53  51  93 CALM      29.95R
6HR MIN TEMP:  51; 6HR MAX TEMP:  56;

MERIDIAN NAS   PTCLDY    53  50  89 CALM      29.96R
6HR MIN TEMP:  51; 6HR MAX TEMP:  54;

RAYMOND        FAIR      54  48  82 CALM      29.94R
VICKSBURG      MOCLDY    57  54  89 CALM      29.93R
6HR MIN TEMP:  56; 6HR MAX TEMP:  61;

$$

MSZ059>079-241300-
SOUTH MISSISSIPPI

CITY           SKY/WX    TMP DP  RH WIND       PRES   REMARKS
BROOKHAVEN     FAIR      55  55 100 CALM      29.96R FOG
HATTIESBURG    CLEAR     58  56  93 CALM      29.95R
6HR MIN TEMP:  57; 6HR MAX TEMP:  63;

MCCOMB         FOG       57  56  96 CALM      29.94R VSB 1/4
6HR MIN TEMP:  55; 6HR MAX TEMP:  64;

NATCHEZ        CLOUDY    55  54  94 CALM      29.93R
6HR MIN TEMP:  54; 6HR MAX TEMP:  61;

PINE BELT      CLEAR     55  54  94 CALM      29.95R
6HR MIN TEMP:  55; 6HR MAX TEMP:  59;

$$

MSZ080>082-241300-
COASTAL MISSISSIPPI

CITY           SKY/WX    TMP DP  RH WIND       PRES   REMARKS
BAY ST LOUIS   FOG       54  52  94 CALM      29.95  VSB 1/4
BILOXI         CLEAR     65  65 100 NE2       29.95R FOG
6HR MIN TEMP:  64; 6HR MAX TEMP:  69;

PASCAGOULA     FOG       60  60 100 CALM      29.95R VSB<1/4
6HR MIN TEMP:  58; 6HR MAX TEMP:  62;

GULFPORT       FOG       64  61  90 CALM      29.94R VSB 1/2
6HR MIN TEMP:  62; 6HR MAX TEMP:  70;

$$



USA.gov is the U.S. government's official web portal to all federal, state and local government web resources and services.